Home > Weather > Gorgan > Past weeks

Flag for Iran Past Weather in Gorgan, Iran — Yesterday and Last 2 Weeks

Now
93 °F

Sunny.


Feels Like: 94 °F
Forecast: 72 / 103 °F
Wind: 5 mph from East

Location: Gorgan Airport

Current Time: Jun 28, 2016 at 12:26:56 PM

Latest Report: Jun 28, 2016 at 12:00 PM


Visibility: 10 mi

Pressure: 29.74 "Hg

Humidity: 36%

Dew Point: 63 °F

Location of GorganLocation

Past Weather in Gorgan — Graph

°F

Gorgan Temperature Yesterday

Maximum temperature yesterday: 95 °F (at 2:30 PM)
Minimum temperature yesterday: 68 °F (at 5:30 AM)
Average temperature yesterday: 81 °F

High & Low Weather Summary for the Past Weeks

 TemperatureHumidityPressure
High99 °F (Jun 15, 4:30 PM)100% (Jun 14, 1:30 AM)30.09 "Hg (Jun 14, 1:30 AM)
Low61 °F (Jun 14, 1:30 AM)18% (Jun 15, 6:30 PM)29.62 "Hg (Jun 16, 4:30 AM)
Average80 °F64%29.93 "Hg
* Reported Jun 13 10:30 AM — Jun 28 10:30 AM, Gorgan, Weather by CustomWeather, © 2016

Note: Actual official high and low records may vary slightly from our data, if they occured in-between our weather recording intervals... More about our weather records

Advertising

Gorgan Weather History for the Previous 24 Hours

Scroll right to see more
 ConditionsComfort  
Time TempWeatherWind HumidityBarometerVisibility
10:30 AM
Tue, Jun 28
88 °FSunny.No wind49%29.77 "Hg10 mi
9:30 AM84 °FSunny.5 mph58%29.77 "Hg10 mi
8:30 AM81 °FSunny.No wind62%29.80 "Hg10 mi
7:30 AM77 °FSunny.No wind74%29.80 "Hg10 mi
7:00 AM73 °FClear.No wind78%29.80 "Hg10 mi
6:30 AM70 °FClear.No wind94%29.80 "Hg10 mi
5:30 AM68 °FClear.No wind94%29.80 "Hg10 mi
4:30 AM70 °FClear.No wind94%29.80 "Hg10 mi
3:30 AM72 °FClear.No wind88%29.80 "Hg10 mi
2:30 AM72 °FClear.No wind88%29.80 "Hg10 mi
1:30 AM73 °FClear.No wind89%29.83 "Hg10 mi
12:30 AM73 °FClear.No wind89%29.86 "Hg10 mi
11:30 PM
Mon, Jun 27
73 °FClear.No wind89%29.86 "Hg10 mi
10:30 PM75 °FClear.No wind83%29.86 "Hg10 mi
9:30 PM79 °FSunny.12 mph74%29.83 "Hg10 mi
8:30 PM81 °FSunny.14 mph66%29.83 "Hg10 mi
7:30 PM84 °FPassing clouds.23 mph55%29.83 "HgN/A
6:30 PM90 °FPassing clouds.21 mph46%29.83 "HgN/A
5:30 PM93 °FPassing clouds.12 mph41%29.80 "HgN/A
4:30 PM93 °FPassing clouds.9 mph41%29.83 "HgN/A
3:30 PM93 °FPassing clouds.7 mph34%29.83 "HgN/A
2:30 PM95 °FPassing clouds.12 mph34%29.86 "HgN/A
1:30 PM91 °FPassing clouds.9 mph38%29.89 "HgN/A
12:30 PM90 °FPassing clouds.9 mph41%29.89 "HgN/A
Weather by CustomWeather, © 2016

See weather overviewHow to use our weather pages